Wetterdaten: aktuell Montag, 01.03.2021 07:15
Datum Zeit Temp. 2m rel. Feuchte Luftdruck Regen Wind Richtung Richtung Sonne ET UV-Index Solar Taupunkt Ben
01.03.2021 07:15 0,1 C 93 % 1033,7 hPa 0,0 mm 0,0 km/h (0 Bft) N-NW 332 0 min 0,0 mm 0,0 UV-I 0 W/m -0,9 C 0,0 km/h (0 Bft)
01.03.2021 06:15 0,7 C 93 % 1033,5 hPa 0,0 mm 0,0 km/h (0 Bft) N-NW 331 0 min 0,0 mm 0,0 UV-I 0 W/m -0,3 C 0,0 km/h (0 Bft)
01.03.2021 05:15 0,9 C 91 % 1033,4 hPa 0,0 mm 0,0 km/h (0 Bft) O 84 0 min 0,0 mm 0,0 UV-I 0 W/m -0,4 C 0,0 km/h (0 Bft)
01.03.2021 04:15 1,7 C 91 % 1033,5 hPa 0,0 mm 0,0 km/h (0 Bft) N-NW 332 0 min 0,0 mm 0,0 UV-I 0 W/m 0,4 C 0,0 km/h (0 Bft)
01.03.2021 03:15 1,8 C 90 % 1033,7 hPa 0,0 mm 0,0 km/h (0 Bft) N-NW 332 0 min 0,0 mm 0,0 UV-I 0 W/m 0,3 C 0,0 km/h (0 Bft)
01.03.2021 02:10 2,1 C 89 % 1033,9 hPa 0,0 mm 0,0 km/h (0 Bft) N-NW 332 0 min 0,0 mm 0,0 UV-I 0 W/m 0,5 C 0,0 km/h (0 Bft)
01.03.2021 01:10 2,8 C 89 % 1034,0 hPa 0,0 mm 0,0 km/h (0 Bft) N-NW 331 0 min 0,0 mm 0,0 UV-I 0 W/m 1,2 C 0,0 km/h (0 Bft)
01.03.2021 00:11 3,4 C 88 % 1033,7 hPa 0,0 mm 0,0 km/h (0 Bft) O 84 0 min 0,0 mm 0,0 UV-I 0 W/m 1,6 C 0,0 km/h (0 Bft)
28.02.2021 23:10 4,2 C 86 % 1033,8 hPa 0,0 mm 0,0 km/h (0 Bft) N-NW 330 0 min 0,0 mm 0,0 UV-I 0 W/m 2,1 C 0,0 km/h (0 Bft)
28.02.2021 22:10 5,1 C 85 % 1034,0 hPa 0,0 mm 0,0 km/h (0 Bft) O 84 0 min 0,0 mm 0,0 UV-I 0 W/m 2,8 C 0,0 km/h (0 Bft)
28.02.2021 21:10 6,3 C 81 % 1033,7 hPa 0,0 mm 0,0 km/h (0 Bft) O 84 0 min 0,0 mm 0,0 UV-I 0 W/m 3,3 C 0,0 km/h (0 Bft)
28.02.2021 20:10 8,4 C 76 % 1033,8 hPa 0,0 mm 0,0 km/h (0 Bft) O 84 0 min 0,0 mm 0,0 UV-I 0 W/m 4,4 C 0,0 km/h (0 Bft)
28.02.2021 19:10 9,6 C 71 % 1033,8 hPa 0,0 mm 0,0 km/h (0 Bft) O 84 0 min 0,0 mm 0,0 UV-I 0 W/m 4,6 C 0,0 km/h (0 Bft)
28.02.2021 18:10 10,9 C 66 % 1033,5 hPa 0,0 mm 0,4 km/h (0 Bft) O 84 30 min 0,1 mm 0,0 UV-I 10 W/m 4,8 C 2,2 km/h (1 Bft)
28.02.2021 17:10 12,6 C 59 % 1033,4 hPa 0,0 mm 0,5 km/h (0 Bft) N-NW 332 60 min 0,1 mm 0,5 UV-I 174 W/m 4,8 C 2,2 km/h (1 Bft)
28.02.2021 16:10 12,6 C 60 % 1033,8 hPa 0,0 mm 0,1 km/h (0 Bft) N-NW 332 60 min 0,2 mm 0,0 UV-I 353 W/m 5,0 C 2,2 km/h (1 Bft)
28.02.2021 15:10 12,8 C 58 % 1034,5 hPa 0,0 mm 2,3 km/h (1 Bft) N-NW 328 60 min 0,2 mm 0,8 UV-I 506 W/m 4,7 C 6,7 km/h (2 Bft)
28.02.2021 14:10 11,9 C 55 % 1035,2 hPa 0,0 mm 1,0 km/h (0 Bft) O 84 60 min 0,3 mm 1,5 UV-I 606 W/m 3,2 C 6,7 km/h (2 Bft)
28.02.2021 13:10 10,9 C 58 % 1036,2 hPa 0,0 mm 0,8 km/h (0 Bft) O 84 60 min 0,3 mm 2,4 UV-I 647 W/m 3,0 C 4,4 km/h (1 Bft)
28.02.2021 12:10 9,9 C 63 % 1037,0 hPa 0,0 mm 3,7 km/h (1 Bft) S 188 60 min 0,2 mm 2,8 UV-I 637 W/m 3,2 C 8,9 km/h (2 Bft)
28.02.2021 11:10 8,6 C 67 % 1037,6 hPa 0,0 mm 3,3 km/h (1 Bft) O 84 60 min 0,2 mm 2,0 UV-I 566 W/m 2,8 C 6,7 km/h (2 Bft)
28.02.2021 10:10 6,6 C 74 % 1037,7 hPa 0,0 mm 5,6 km/h (1 Bft) O 84 60 min 0,1 mm 1,4 UV-I 437 W/m 2,3 C 11,1 km/h (2 Bft)
28.02.2021 09:10 4,1 C 86 % 1037,9 hPa 0,0 mm 1,3 km/h (1 Bft) O 84 30 min 0,0 mm 0,6 UV-I 270 W/m 2,0 C 6,7 km/h (2 Bft)
28.02.2021 08:10 2,1 C 87 % 1037,7 hPa 0,0 mm 0,0 km/h (0 Bft) S 180 0 min 0,0 mm 0,0 UV-I 37 W/m 0,2 C 0,0 km/h (0 Bft)
28.02.2021 08:00 2,2 C 86 % 1037,7 hPa 0,0 mm 0,0 km/h (0 Bft) S 181 0 min 0,0 mm 0,0 UV-I 30 W/m 0,1 C 0,0 km/h (0 Bft)
_ Min-Zeit 07:10 13:30 17:10 - 08:00 - - - - - - 06:50 08:00
Minimum _ 0,1 C 55 % 1033,4 hPa - 0,0 km/h (0 Bft) - - - - - - -1,0 C 0,0 km/h (0 Bft)
_ Max-Zeit 15:10 04:35 08:30 08:00 12:15 - - 08:45 13:00 12:25 12:40 17:35 11:15
Maximum _ 12,8 C 93 % 1037,9 hPa 0,0 mm 7,4 km/h
S-SW (2 Bft)
- - 5 min 0,3 mm 3,2 UV-I 651 W/m 5,2 C 15,5 km/h
O (3 Bft)
Durchschnitt _ 6,1 C 78 % 1034,9 hPa #0,0 mm 0,8 km/h (0 Bft) O - #0 min. #0,000 mm 0,0 UV-I 0 W/m 2,2 C 2,5 km/h (1 Bft)



© 1998 - 2021 www.pulheimwetter.de